Time,TemperatureF,DewpointF,PressureIn,WindDirection,WindDirectionDegrees,WindSpeedMPH,WindSpeedGustMPH,Humidity,HourlyPrecipIn,Conditions,Clouds,dailyrainin,SolarRadiationWatts/m^2,SoftwareType,DateUTC
2013-10-03 00:04:00,72.0,62.0,-100.00,SE,139,6.0,8.0,71,0.00,,,0.00,0.000000,,2013-10-03 05:04:00,
2013-10-03 00:43:00,71.0,63.0,-100.00,SE,144,6.0,8.0,77,0.00,,,0.00,0.000000,,2013-10-03 05:43:00,
2013-10-03 00:52:00,71.0,63.0,-100.00,SE,144,6.0,8.0,77,0.00,,,0.00,0.000000,,2013-10-03 05:52:00,
2013-10-03 01:02:00,71.0,63.0,-100.00,SE,144,6.0,8.0,77,0.00,,,0.00,0.000000,,2013-10-03 06:02:00,
2013-10-03 01:42:00,70.0,63.0,-100.00,SE,136,4.0,7.0,78,0.00,,,0.00,0.000000,,2013-10-03 06:42:00,
2013-10-03 01:52:00,70.0,63.0,-100.00,SE,136,4.0,7.0,78,0.00,,,0.00,0.000000,,2013-10-03 06:52:00,
2013-10-03 02:02:00,70.0,63.0,-100.00,SE,136,4.0,7.0,78,0.00,,,0.00,0.000000,,2013-10-03 07:02:00,
2013-10-03 02:42:00,70.0,64.0,-100.00,ESE,106,4.0,5.0,80,0.00,,,0.00,0.000000,,2013-10-03 07:42:00,
2013-10-03 02:52:00,70.0,64.0,-100.00,ESE,106,4.0,5.0,80,0.00,,,0.00,0.000000,,2013-10-03 07:52:00,
2013-10-03 03:03:00,70.0,64.0,-100.00,ESE,106,4.0,5.0,80,0.00,,,0.00,0.000000,,2013-10-03 08:03:00,
2013-10-03 03:42:00,69.0,63.0,-100.00,SE,125,4.0,6.0,82,0.00,,,0.00,0.000000,,2013-10-03 08:42:00,
2013-10-03 03:52:00,69.0,63.0,-100.00,SE,125,4.0,6.0,82,0.00,,,0.00,0.000000,,2013-10-03 08:52:00,
2013-10-03 04:02:00,69.0,63.0,-100.00,SE,125,4.0,6.0,82,0.00,,,0.00,0.000000,,2013-10-03 09:02:00,
2013-10-03 04:43:00,68.0,64.0,-100.00,SE,131,3.0,6.0,86,0.00,,,0.00,0.000000,,2013-10-03 09:43:00,
2013-10-03 04:53:00,68.0,64.0,-100.00,SE,131,3.0,6.0,86,0.00,,,0.00,0.000000,,2013-10-03 09:53:00,
2013-10-03 05:03:00,68.0,64.0,-100.00,SE,131,3.0,6.0,86,0.00,,,0.00,0.000000,,2013-10-03 10:03:00,
2013-10-03 05:43:00,69.0,66.0,-100.00,SE,129,3.0,6.0,89,0.00,,,0.00,0.000000,,2013-10-03 10:43:00,
2013-10-03 05:52:00,69.0,66.0,-100.00,SE,129,3.0,6.0,89,0.00,,,0.00,0.000000,,2013-10-03 10:52:00,
2013-10-03 06:03:00,69.0,66.0,-100.00,SE,129,3.0,6.0,89,0.00,,,0.00,0.000000,,2013-10-03 11:03:00,
2013-10-03 06:42:00,69.0,66.0,-100.00,ESE,121,4.0,8.0,90,0.00,,,0.00,0.000000,,2013-10-03 11:42:00,
2013-10-03 06:52:00,69.0,66.0,-100.00,ESE,121,4.0,8.0,90,0.00,,,0.00,0.000000,,2013-10-03 11:52:00,
2013-10-03 07:01:00,69.0,66.0,-100.00,ESE,121,4.0,8.0,90,0.00,,,0.00,0.000000,,2013-10-03 12:01:00,
2013-10-03 07:42:00,69.0,66.0,-100.00,ESE,119,1.0,8.0,91,0.00,,,0.00,0.000000,,2013-10-03 12:42:00,
2013-10-03 07:52:00,69.0,66.0,-100.00,ESE,119,1.0,8.0,91,0.00,,,0.00,0.000000,,2013-10-03 12:52:00,
2013-10-03 08:01:00,69.0,66.0,-100.00,ESE,119,1.0,8.0,91,0.00,,,0.00,0.000000,,2013-10-03 13:01:00,
2013-10-03 08:42:00,69.0,67.0,-100.00,ESE,112,2.0,7.0,94,0.00,,,0.00,11.000000,,2013-10-03 13:42:00,
2013-10-03 08:52:00,69.0,67.0,-100.00,ESE,112,2.0,7.0,94,0.00,,,0.00,11.000000,,2013-10-03 13:52:00,
2013-10-03 09:02:00,69.0,67.0,-100.00,ESE,112,2.0,7.0,94,0.00,,,0.00,11.000000,,2013-10-03 14:02:00,
2013-10-03 09:42:00,75.0,71.0,-100.00,SE,132,7.0,9.0,86,0.00,,,0.00,177.000000,,2013-10-03 14:42:00,
2013-10-03 09:52:00,75.0,71.0,-100.00,SE,132,7.0,9.0,86,0.00,,,0.00,177.000000,,2013-10-03 14:52:00,
2013-10-03 10:01:00,75.0,71.0,-100.00,SE,132,7.0,9.0,86,0.00,,,0.00,177.000000,,2013-10-03 15:01:00,
2013-10-03 10:43:00,79.0,69.0,-100.00,SSE,153,13.0,20.0,72,0.00,,,0.00,404.000000,,2013-10-03 15:43:00,
2013-10-03 10:54:00,79.0,69.0,-100.00,SSE,153,13.0,20.0,72,0.00,,,0.00,404.000000,,2013-10-03 15:54:00,
2013-10-03 11:03:00,79.0,69.0,-100.00,SSE,153,13.0,20.0,72,0.00,,,0.00,404.000000,,2013-10-03 16:03:00,
2013-10-03 11:43:00,82.0,69.0,-100.00,South,169,14.0,21.0,64,0.00,,,0.00,599.000000,,2013-10-03 16:43:00,
2013-10-03 11:53:00,82.0,69.0,-100.00,South,169,14.0,21.0,64,0.00,,,0.00,599.000000,,2013-10-03 16:53:00,
2013-10-03 12:03:00,82.0,69.0,-100.00,South,169,14.0,21.0,64,0.00,,,0.00,599.000000,,2013-10-03 17:03:00,
2013-10-03 12:42:00,85.0,68.0,-100.00,South,173,13.0,21.0,56,0.00,,,0.00,788.000000,,2013-10-03 17:42:00,
2013-10-03 12:52:00,85.0,68.0,-100.00,South,173,13.0,21.0,56,0.00,,,0.00,788.000000,,2013-10-03 17:52:00,
2013-10-03 13:01:00,85.0,68.0,-100.00,South,173,13.0,21.0,56,0.00,,,0.00,788.000000,,2013-10-03 18:01:00,
2013-10-03 13:42:00,87.0,66.0,-100.00,SSE,159,12.0,19.0,50,0.00,,,0.00,883.000000,,2013-10-03 18:42:00,
2013-10-03 13:52:00,87.0,66.0,-100.00,SSE,159,12.0,19.0,50,0.00,,,0.00,883.000000,,2013-10-03 18:52:00,
2013-10-03 14:01:00,87.0,66.0,-100.00,SSE,159,12.0,19.0,50,0.00,,,0.00,883.000000,,2013-10-03 19:01:00,
2013-10-03 14:42:00,89.0,64.0,-100.00,South,184,13.0,19.0,44,0.00,,,0.00,905.000000,,2013-10-03 19:42:00,
2013-10-03 14:52:00,89.0,64.0,-100.00,South,184,13.0,19.0,44,0.00,,,0.00,905.000000,,2013-10-03 19:52:00,
2013-10-03 15:02:00,89.0,64.0,-100.00,South,184,13.0,19.0,44,0.00,,,0.00,905.000000,,2013-10-03 20:02:00,
2013-10-03 16:43:00,91.0,61.0,-100.00,South,169,13.0,19.0,37,-99.99,,,-99.99,736.000000,,2013-10-03 21:43:00,
2013-10-03 16:54:00,91.0,61.0,-100.00,South,169,13.0,19.0,37,-99.99,,,-99.99,736.000000,,2013-10-03 21:54:00,
2013-10-03 17:04:00,91.0,61.0,-100.00,South,169,13.0,19.0,37,-99.99,,,-99.99,736.000000,,2013-10-03 22:04:00,
2013-10-03 18:43:00,90.0,59.0,-100.00,SSE,153,12.0,18.0,35,-99.99,,,0.00,338.000000,,2013-10-03 23:43:00,
2013-10-03 18:52:00,90.0,59.0,-100.00,SSE,153,12.0,18.0,35,-99.99,,,0.00,338.000000,,2013-10-03 23:52:00,
2013-10-03 19:02:00,90.0,59.0,-100.00,SSE,153,12.0,18.0,35,-99.99,,,0.00,338.000000,,2013-10-04 00:02:00,
2013-10-03 19:42:00,86.0,58.0,-100.00,SE,146,8.0,16.0,39,0.00,,,0.00,115.000000,,2013-10-04 00:42:00,
2013-10-03 19:52:00,86.0,58.0,-100.00,SE,146,8.0,16.0,39,0.00,,,0.00,115.000000,,2013-10-04 00:52:00,
2013-10-03 20:02:00,86.0,58.0,-100.00,SE,146,8.0,16.0,39,0.00,,,0.00,115.000000,,2013-10-04 01:02:00,
2013-10-03 20:42:00,80.0,58.0,-100.00,SE,140,6.0,10.0,47,0.00,,,0.00,3.000000,,2013-10-04 01:42:00,
2013-10-03 20:52:00,80.0,58.0,-100.00,SE,140,6.0,10.0,47,0.00,,,0.00,3.000000,,2013-10-04 01:52:00,
2013-10-03 21:02:00,80.0,58.0,-100.00,SE,140,6.0,10.0,47,0.00,,,0.00,3.000000,,2013-10-04 02:02:00,
2013-10-03 21:43:00,77.0,59.0,-100.00,SE,140,7.0,9.0,54,0.00,,,0.00,0.000000,,2013-10-04 02:43:00,
2013-10-03 21:52:00,77.0,59.0,-100.00,SE,140,7.0,9.0,54,0.00,,,0.00,0.000000,,2013-10-04 02:52:00,
2013-10-03 22:02:00,77.0,59.0,-100.00,SE,140,7.0,9.0,54,0.00,,,0.00,0.000000,,2013-10-04 03:02:00,
2013-10-03 22:44:00,76.0,59.0,-100.00,SE,141,8.0,10.0,55,0.00,,,0.00,0.000000,,2013-10-04 03:44:00,
2013-10-03 23:00:00,76.0,59.0,-100.00,SE,141,8.0,10.0,55,0.00,,,0.00,0.000000,,2013-10-04 04:00:00,
2013-10-03 23:07:00,76.0,61.0,-100.00,SE,136,8.0,12.0,59,0.00,,,0.00,0.000000,,2013-10-04 04:07:00,
2013-10-03 23:51:00,76.0,61.0,-100.00,SE,136,8.0,12.0,59,0.00,,,0.00,0.000000,,2013-10-04 04:51:00,